TimeCST,TemperatureF,Dew PointF,Humidity,Sea Level PressureIn,VisibilityMPH,Wind Direction,Wind SpeedMPH,Gust SpeedMPH,PrecipitationIn,Events,Conditions,WindDirDegrees,DateUTC
12:15 AM,10.4,3.2,73,29.83,10.0,WNW,18.4,26.5,N/A,,Partly Cloudy,290,2013-12-05 06:15:00
12:35 AM,10.4,1.4,67,29.85,10.0,West,18.4,27.6,N/A,,Partly Cloudy,280,2013-12-05 06:35:00
12:55 AM,10.4,1.4,67,29.86,10.0,WNW,19.6,28.8,N/A,,Partly Cloudy,290,2013-12-05 06:55:00
1:15 AM,8.6,1.4,73,29.85,10.0,WNW,19.6,29.9,N/A,,Clear,290,2013-12-05 07:15:00
1:35 AM,8.6,1.4,73,29.87,10.0,WNW,16.1,27.6,N/A,,Clear,290,2013-12-05 07:35:00
1:55 AM,8.6,1.4,73,29.90,10.0,West,21.9,26.5,N/A,,Clear,280,2013-12-05 07:55:00
2:15 AM,8.6,1.4,73,29.91,10.0,West,17.3,-,N/A,,Clear,280,2013-12-05 08:15:00
2:35 AM,8.6,1.4,73,29.92,10.0,West,18.4,-,N/A,,Clear,280,2013-12-05 08:35:00
2:55 AM,8.6,1.4,73,29.93,10.0,West,21.9,26.5,N/A,,Clear,280,2013-12-05 08:55:00
3:15 AM,8.6,1.4,73,29.94,10.0,West,19.6,26.5,N/A,,Clear,280,2013-12-05 09:15:00
3:35 AM,8.6,1.4,73,29.96,10.0,West,19.6,27.6,N/A,,Clear,280,2013-12-05 09:35:00
3:55 AM,8.6,-0.4,67,29.96,10.0,West,21.9,29.9,N/A,,Clear,280,2013-12-05 09:55:00
4:15 AM,6.8,-0.4,72,29.97,10.0,West,20.7,28.8,N/A,,Clear,280,2013-12-05 10:15:00
4:35 AM,6.8,-0.4,72,29.98,10.0,WNW,18.4,28.8,N/A,,Clear,290,2013-12-05 10:35:00
4:55 AM,6.8,-0.4,72,29.99,10.0,West,15.0,25.3,N/A,,Clear,280,2013-12-05 10:55:00
5:15 AM,6.8,-0.4,72,30.00,10.0,West,17.3,28.8,N/A,,Clear,280,2013-12-05 11:15:00
5:35 AM,6.8,-0.4,72,30.00,10.0,West,18.4,27.6,N/A,,Clear,280,2013-12-05 11:35:00
5:55 AM,6.8,-0.4,72,30.01,10.0,West,17.3,21.9,N/A,,Clear,280,2013-12-05 11:55:00
6:15 AM,6.8,-0.4,72,30.02,10.0,West,17.3,24.2,N/A,,Clear,280,2013-12-05 12:15:00
6:35 AM,6.8,-0.4,72,30.04,10.0,West,17.3,25.3,N/A,,Clear,280,2013-12-05 12:35:00
6:55 AM,5.0,-0.4,78,30.05,10.0,West,16.1,24.2,N/A,,Clear,280,2013-12-05 12:55:00
7:15 AM,5.0,-0.4,78,30.05,10.0,West,18.4,-,N/A,,Clear,280,2013-12-05 13:15:00
7:35 AM,5.0,-2.2,72,30.07,10.0,West,18.4,24.2,N/A,,Clear,280,2013-12-05 13:35:00
7:55 AM,5.0,-2.2,72,30.07,10.0,West,17.3,24.2,N/A,,Clear,280,2013-12-05 13:55:00
8:15 AM,5.0,-2.2,72,30.08,10.0,WNW,19.6,23.0,N/A,,Clear,290,2013-12-05 14:15:00
8:35 AM,6.8,-2.2,67,30.08,10.0,WNW,23.0,-,N/A,,Clear,290,2013-12-05 14:35:00
8:55 AM,6.8,-0.4,72,30.09,10.0,West,20.7,26.5,N/A,,Clear,280,2013-12-05 14:55:00
9:15 AM,6.8,-0.4,72,30.10,10.0,WNW,23.0,28.8,N/A,,Clear,290,2013-12-05 15:15:00
9:35 AM,6.8,-0.4,72,30.11,10.0,WNW,18.4,27.6,N/A,,Clear,290,2013-12-05 15:35:00
9:55 AM,8.6,-0.4,67,30.11,10.0,WNW,19.6,29.9,N/A,,Clear,290,2013-12-05 15:55:00
10:15 AM,8.6,-0.4,67,30.12,10.0,WNW,21.9,29.9,N/A,,Clear,300,2013-12-05 16:15:00
10:35 AM,8.6,-2.2,62,30.13,10.0,WNW,21.9,31.1,N/A,,Clear,300,2013-12-05 16:35:00
10:55 AM,8.6,-0.4,67,30.14,10.0,WNW,21.9,27.6,N/A,,Clear,300,2013-12-05 16:55:00
11:15 AM,8.6,-0.4,67,30.15,10.0,West,20.7,26.5,N/A,,Clear,280,2013-12-05 17:15:00
11:35 AM,8.6,-0.4,67,30.16,10.0,WNW,20.7,25.3,N/A,,Clear,290,2013-12-05 17:35:00
11:55 AM,8.6,-0.4,67,30.16,10.0,WNW,21.9,25.3,N/A,,Clear,290,2013-12-05 17:55:00
12:15 PM,8.6,-0.4,67,30.16,10.0,WNW,19.6,24.2,N/A,,Clear,290,2013-12-05 18:15:00
12:35 PM,8.6,-0.4,67,30.17,10.0,WNW,19.6,-,N/A,,Clear,290,2013-12-05 18:35:00
12:55 PM,10.4,-0.4,62,30.16,10.0,WNW,16.1,21.9,N/A,,Partly Cloudy,290,2013-12-05 18:55:00
1:15 PM,10.4,-0.4,62,30.16,10.0,WNW,16.1,-,N/A,,Partly Cloudy,290,2013-12-05 19:15:00
1:35 PM,10.4,-0.4,62,30.14,10.0,WNW,20.7,26.5,N/A,,Clear,300,2013-12-05 19:35:00
1:55 PM,10.4,-0.4,62,30.14,10.0,WNW,21.9,27.6,N/A,,Clear,300,2013-12-05 19:55:00
2:15 PM,10.4,-0.4,62,30.14,10.0,WNW,18.4,26.5,N/A,,Clear,300,2013-12-05 20:15:00
2:35 PM,10.4,-0.4,62,30.14,10.0,WNW,18.4,23.0,N/A,,Clear,290,2013-12-05 20:35:00
2:55 PM,8.6,-0.4,67,30.16,10.0,WNW,17.3,-,N/A,,Clear,300,2013-12-05 20:55:00
3:15 PM,8.6,-2.2,62,30.17,10.0,West,17.3,-,N/A,,Clear,280,2013-12-05 21:15:00
3:35 PM,8.6,-0.4,67,30.17,10.0,West,16.1,-,N/A,,Partly Cloudy,280,2013-12-05 21:35:00
3:55 PM,6.8,-0.4,72,30.18,10.0,West,15.0,-,N/A,,Clear,280,2013-12-05 21:55:00
4:15 PM,6.8,-2.2,67,30.19,10.0,West,18.4,-,N/A,,Partly Cloudy,280,2013-12-05 22:15:00
4:35 PM,6.8,-2.2,67,30.20,10.0,West,10.4,18.4,N/A,,Clear,280,2013-12-05 22:35:00
4:55 PM,6.8,-2.2,67,30.21,10.0,WNW,12.7,-,N/A,,Clear,290,2013-12-05 22:55:00
5:15 PM,5.0,-2.2,72,30.22,10.0,WNW,15.0,-,N/A,,Clear,290,2013-12-05 23:15:00
5:35 PM,5.0,-2.2,72,30.23,10.0,West,11.5,-,N/A,,Clear,280,2013-12-05 23:35:00
5:55 PM,5.0,-2.2,72,30.24,10.0,West,11.5,-,N/A,,Clear,280,2013-12-05 23:55:00
6:15 PM,5.0,-2.2,72,30.26,10.0,West,11.5,17.3,N/A,,Clear,280,2013-12-06 00:15:00
6:35 PM,5.0,-2.2,72,30.28,10.0,West,11.5,17.3,N/A,,Clear,270,2013-12-06 00:35:00
6:55 PM,3.2,-2.2,78,30.28,10.0,West,11.5,-,N/A,,Clear,280,2013-12-06 00:55:00
7:15 PM,3.2,-2.2,78,30.29,10.0,West,11.5,-,N/A,,Clear,270,2013-12-06 01:15:00
7:35 PM,3.2,-4.0,72,30.29,10.0,West,10.4,-,N/A,,Clear,270,2013-12-06 01:35:00
7:55 PM,3.2,-4.0,72,30.30,10.0,West,12.7,-,N/A,,Clear,280,2013-12-06 01:55:00
8:15 PM,3.2,-4.0,72,30.30,10.0,West,10.4,-,N/A,,Clear,280,2013-12-06 02:15:00
8:35 PM,3.2,-5.8,66,30.30,10.0,West,15.0,-,N/A,,Clear,280,2013-12-06 02:35:00
8:55 PM,3.2,-5.8,66,30.30,10.0,West,15.0,20.7,N/A,,Clear,280,2013-12-06 02:55:00
9:15 PM,1.4,-5.8,72,30.32,10.0,West,15.0,-,N/A,,Clear,270,2013-12-06 03:15:00
9:35 PM,1.4,-5.8,72,30.31,10.0,West,15.0,18.4,N/A,,Clear,280,2013-12-06 03:35:00
9:55 PM,1.4,-5.8,72,30.32,10.0,West,12.7,-,N/A,,Clear,280,2013-12-06 03:55:00
10:15 PM,1.4,-5.8,72,30.32,10.0,West,13.8,-,N/A,,Clear,280,2013-12-06 04:15:00
10:35 PM,1.4,-5.8,72,30.32,10.0,West,15.0,-,N/A,,Clear,280,2013-12-06 04:35:00
10:55 PM,1.4,-7.6,66,30.33,10.0,WNW,15.0,-,N/A,,Clear,290,2013-12-06 04:55:00
11:15 PM,-0.4,-7.6,72,30.35,10.0,WNW,15.0,-,N/A,,Clear,290,2013-12-06 05:15:00
11:35 PM,-0.4,-7.6,72,30.35,10.0,West,11.5,-,N/A,,Clear,280,2013-12-06 05:35:00
11:55 PM,-0.4,-7.6,72,30.35,10.0,West,13.8,-,N/A,,Clear,280,2013-12-06 05:55:00